User: anonymous   Login
Location: Azul
(36.7830°S, 59.8500°W)
Time: 16:15:51
(UTC-03:00)
Language:

TIGRISAT - Orbit

View from above orbital plane
View from above orbital plane
View from above satellite
View from above satellite

Ground track
Ground track

The orbit data is extracted from the following two-line orbital elements,

1 40043U 14033AK  22331.76632002  .00000724  00000-0  11095-3 0  9991
2 40043  97.6545 152.2758 0058554 348.5698  11.4178 14.75388759453707
Epoch (UTC): 27 November 2022 18:23:30
Eccentricity: 0.0058554
inclination: 97.6545°
perigee height: 603 km
apogee height: 685 km
right ascension of ascending node: 152.2758°
argument of perigee: 348.5698°
revolutions per day: 14.75388759
mean anomaly at epoch: 11.4178°
orbit number at epoch: 45370

The dashed part of the orbit path shows where the satellite is in the earth's shadow,  

DLR